Weather History for Mount Werner, CO

Change the Weather History Date:

Thursday, October 4, 2012

  Actual Average Record
Temperature  
Mean Temperature 39 °F -  
Max Temperature 46 °F - - ()
Min Temperature 32 °F - - ()
Degree Days  
Heating Degree Days 26    
Moisture  
Dew Point -5 °F    
Average Humidity 17    
Maximum Humidity 41    
Minimum Humidity 5    
Precipitation  
Precipitation 0.00 in - - ()
Sea Level Pressure  
Sea Level Pressure 30.13 in    
Wind  
Wind Speed 13 mph (West)    
Max Wind Speed 21 mph    
Max Gust Speed 36 mph    
Visibility 10 miles    
Events      
T = Trace of Precipitation, MM = Missing Value Source: NWS Daily Summary

Daily Weather History Graph

Daily Weather History Graph

Search for Another Location

Airport:

Trip Planner

Search our weather history database for the weather conditions in past years. The results will help you decide how hot, cold, wet, or windy it might be!

Date:

Astronomy

Oct. 04, 2012 Rise Set
Actual Time 7:07 AM MDT 6:43 PM MDT
Civil Twilight 6:39 AM MDT 7:10 PM MDT
Nautical Twilight 6:08 AM MDT 7:42 PM MDT
Astronomical Twilight 5:36 AM MDT 8:13 PM MDT
Moon 9:20 PM MDT (10/4) 11:27 AM MDT (10/4)
Length of Visible Light 12h 30m
Length of Day
11h 36m
Waning Gibbous, 81% of the Moon is Illuminated
Oct 4
Waning Gibbous
Oct 8
Last Quarter
Oct 15
New
Oct 21
First Quarter
Oct 29
Full

Hourly Weather History & Observations

Time (MDT) Temp. Windchill Dew Point Humidity Pressure Visibility Wind Dir Wind Speed Gust Speed Precip Events Conditions
12:05 AM 33.8 °F 24.8 °F 12.2 °F 41% 30.18 in 10.0 mi SW 12.7 mph - N/A   Clear
12:25 AM 33.8 °F 25.8 °F 10.4 °F 38% 30.18 in 10.0 mi SW 10.4 mph - N/A   Clear
12:45 AM 33.8 °F 25.8 °F 10.4 °F 38% 30.18 in 10.0 mi SW 10.4 mph - N/A   Clear
1:04 AM 33.8 °F 26.4 °F 10.4 °F 38% 30.18 in 10.0 mi WSW 9.2 mph - N/A   Clear
1:25 AM 33.8 °F 27.0 °F 10.4 °F 38% 30.18 in 10.0 mi WSW 8.1 mph - N/A   Clear
1:45 AM 33.8 °F 27.0 °F 8.6 °F 35% 30.18 in 10.0 mi WSW 8.1 mph - N/A   Clear
2:05 AM 32.0 °F 24.8 °F 10.4 °F 41% 30.18 in 10.0 mi SW 8.1 mph - N/A   Clear
2:25 AM 32.0 °F 24.2 °F 8.6 °F 38% 30.18 in 10.0 mi WSW 9.2 mph - N/A   Clear
2:46 AM 33.8 °F 25.8 °F 3.2 °F 28% 30.17 in 10.0 mi WSW 10.4 mph - N/A   Clear
3:04 AM 33.8 °F 25.8 °F 1.4 °F 25% 30.17 in 10.0 mi WSW 10.4 mph - N/A   Clear
3:24 AM 33.8 °F 26.4 °F -0.4 °F 23% 30.17 in 10.0 mi SW 9.2 mph - N/A   Clear
3:45 AM 35.6 °F 28.0 °F -4.0 °F 18% 30.16 in 10.0 mi WSW 10.4 mph - N/A   Clear
4:04 AM 35.6 °F 28.0 °F -4.0 °F 18% 30.16 in 10.0 mi West 10.4 mph - N/A   Clear
4:45 AM 35.6 °F 27.5 °F -13.0 °F 12% 30.15 in 10.0 mi West 11.5 mph - N/A   Clear
5:05 AM 37.4 °F 30.8 °F -18.4 °F 9% 30.15 in 10.0 mi WSW 9.2 mph - N/A   Clear
5:25 AM 35.6 °F 28.6 °F -20.2 °F 8% 30.16 in 10.0 mi WSW 9.2 mph - N/A   Clear
5:44 AM 37.4 °F 30.3 °F -23.8 °F 7% 30.16 in 10.0 mi WSW 10.4 mph - N/A   Clear
6:02 AM 37.4 °F 29.8 °F -25.6 °F 6% 30.15 in 10.0 mi WSW 11.5 mph 16.1 mph N/A   Clear
6:25 AM 37.4 °F 29.8 °F -23.8 °F 7% 30.15 in 10.0 mi WSW 11.5 mph - N/A   Mostly Cloudy
6:45 AM 37.4 °F 29.8 °F -23.8 °F 7% 30.15 in 10.0 mi WSW 11.5 mph - N/A   Overcast
7:04 AM 37.4 °F 28.5 °F -20.2 °F 8% 30.14 in 10.0 mi SW 15.0 mph - N/A   Overcast
7:25 AM 39.2 °F 31.2 °F -14.8 °F 10% 30.14 in 10.0 mi SW 13.8 mph - N/A   Overcast
7:45 AM 39.2 °F 30.5 °F -14.8 °F 10% 30.14 in 10.0 mi SW 16.1 mph 21.9 mph N/A   Scattered Clouds
8:05 AM 39.2 °F 29.3 °F -14.8 °F 10% 30.14 in 10.0 mi SW 20.7 mph 26.5 mph N/A   Scattered Clouds
8:24 AM 39.2 °F 30.2 °F -14.8 °F 10% 30.14 in 10.0 mi SSW 17.3 mph 24.2 mph N/A   Clear
8:45 AM 41.0 °F 31.9 °F -18.4 °F 8% 30.14 in 10.0 mi SW 19.6 mph 25.3 mph N/A   Clear
9:04 AM 41.0 °F 31.9 °F -20.2 °F 7% 30.14 in 10.0 mi SW 19.6 mph 25.3 mph N/A   Clear
9:24 AM 41.0 °F 32.5 °F -22.0 °F 6% 30.14 in 10.0 mi SW 17.3 mph 23.0 mph N/A   Clear
9:45 AM 42.8 °F 35.1 °F -25.6 °F 5% 30.14 in 10.0 mi SW 16.1 mph 25.3 mph N/A   Clear
10:04 AM 42.8 °F 35.1 °F -25.6 °F 5% 30.14 in 10.0 mi WSW 16.1 mph 24.2 mph N/A   Clear
10:22 AM 42.8 °F 35.4 °F -23.8 °F 5% 30.15 in 10.0 mi WSW 15.0 mph 24.2 mph N/A   Clear
10:44 AM 42.8 °F 35.8 °F -20.2 °F 6% 30.15 in 10.0 mi West 13.8 mph 18.4 mph N/A   Clear
11:05 AM 42.8 °F 36.6 °F -14.8 °F 8% 30.15 in 10.0 mi WNW 11.5 mph 19.6 mph N/A   Clear
11:25 AM 42.8 °F 36.2 °F -13.0 °F 9% 30.15 in 10.0 mi WNW 12.7 mph 19.6 mph N/A   Clear
11:44 AM 42.8 °F 36.6 °F -7.6 °F 12% 30.15 in 10.0 mi WNW 11.5 mph 16.1 mph N/A   Scattered Clouds
12:24 PM 42.8 °F 37.0 °F -7.6 °F 12% 30.15 in 10.0 mi WNW 10.4 mph 26.5 mph N/A   Clear
12:44 PM 44.6 °F 38.1 °F -5.8 °F 12% 30.15 in 10.0 mi West 13.8 mph 23.0 mph N/A   Clear
1:04 PM 44.6 °F 36.9 °F -4.0 °F 13% 30.14 in 10.0 mi West 18.4 mph 26.5 mph N/A   Clear
1:26 PM 44.6 °F 38.8 °F -4.0 °F 13% 30.14 in 10.0 mi WNW 11.5 mph 23.0 mph N/A   Clear
1:44 PM 42.8 °F 37.0 °F -2.2 °F 15% 30.13 in 10.0 mi WNW 10.4 mph 19.6 mph N/A   Clear
2:04 PM 44.6 °F 37.8 °F -0.4 °F 15% 30.12 in 10.0 mi WNW 15.0 mph 21.9 mph N/A   Clear
2:25 PM 46.4 °F 38.7 °F -0.4 °F 14% 30.11 in 10.0 mi West 20.7 mph 33.4 mph N/A   Clear
2:44 PM 44.6 °F 36.4 °F -0.4 °F 15% 30.10 in 10.0 mi WNW 20.7 mph 35.7 mph N/A   Clear
3:04 PM 44.6 °F 37.2 °F 3.2 °F 18% 30.11 in 10.0 mi WNW 17.3 mph 27.6 mph N/A   Clear
3:25 PM 42.8 °F 34.5 °F 3.2 °F 19% 30.11 in 10.0 mi WNW 18.4 mph 28.8 mph N/A   Clear
3:45 PM 44.6 °F 36.6 °F 3.2 °F 18% 30.11 in 10.0 mi WNW 19.6 mph 26.5 mph N/A   Clear
4:04 PM 46.4 °F 38.7 °F 3.2 °F 17% 30.10 in 10.0 mi WNW 20.7 mph 29.9 mph N/A   Clear
4:25 PM 46.4 °F 38.7 °F 1.4 °F 16% 30.10 in 10.0 mi WNW 20.7 mph 33.4 mph N/A   Clear
4:45 PM 46.4 °F 39.0 °F -0.4 °F 14% 30.10 in 10.0 mi WNW 19.6 mph 28.8 mph N/A   Clear
5:05 PM 46.4 °F 38.7 °F -2.2 °F 13% 30.09 in 10.0 mi WNW 20.7 mph 32.2 mph N/A   Clear
5:24 PM 46.4 °F 39.0 °F -4.0 °F 12% 30.10 in 10.0 mi WNW 19.6 mph 29.9 mph N/A   Clear
5:45 PM 46.4 °F 40.1 °F -5.8 °F 11% 30.10 in 10.0 mi WNW 15.0 mph 27.6 mph N/A   Clear
6:05 PM 44.6 °F 37.8 °F -5.8 °F 12% 30.10 in 10.0 mi WNW 15.0 mph 21.9 mph N/A   Clear
6:25 PM 44.6 °F 37.8 °F -2.2 °F 14% 30.10 in 10.0 mi WNW 15.0 mph 20.7 mph N/A   Clear
6:45 PM 42.8 °F 36.2 °F -0.4 °F 16% 30.10 in 10.0 mi West 12.7 mph 20.7 mph N/A   Clear
7:05 PM 41.0 °F 35.8 °F 1.4 °F 19% 30.10 in 10.0 mi WNW 8.1 mph - N/A   Clear
7:25 PM 41.0 °F 34.7 °F 1.4 °F 19% 30.09 in 10.0 mi WNW 10.4 mph - N/A   Clear
7:45 PM 41.0 °F 35.2 °F 1.4 °F 19% 30.09 in 10.0 mi West 9.2 mph - N/A   Clear
8:05 PM 41.0 °F 35.2 °F 1.4 °F 19% 30.09 in 10.0 mi West 9.2 mph - N/A   Clear
8:25 PM 41.0 °F 35.2 °F 1.4 °F 19% 30.09 in 10.0 mi West 9.2 mph - N/A   Clear
8:45 PM 41.0 °F 34.7 °F 1.4 °F 19% 30.09 in 10.0 mi West 10.4 mph - N/A   Scattered Clouds
9:04 PM 41.0 °F 35.2 °F 3.2 °F 21% 30.08 in 10.0 mi West 9.2 mph - N/A   Scattered Clouds
9:23 PM 41.0 °F 34.7 °F 3.2 °F 21% 30.08 in 10.0 mi West 10.4 mph - N/A   Scattered Clouds
9:43 PM 41.0 °F 33.9 °F 3.2 °F 21% 30.07 in 10.0 mi WSW 12.7 mph 18.4 mph N/A   Scattered Clouds
10:04 PM 41.0 °F 33.1 °F 3.2 °F 21% 30.07 in 10.0 mi WSW 15.0 mph 20.7 mph N/A   Clear
10:24 PM 41.0 °F 33.1 °F 5.0 °F 23% 30.06 in 10.0 mi WSW 15.0 mph 21.9 mph N/A   Clear
10:44 PM 41.0 °F 34.7 °F 3.2 °F 21% 30.06 in 10.0 mi WSW 10.4 mph 16.1 mph N/A   Clear
11:04 PM 41.0 °F 33.9 °F 5.0 °F 23% 30.05 in 10.0 mi SW 12.7 mph - N/A   Clear
11:25 PM 41.0 °F 33.1 °F 5.0 °F 23% 30.05 in 10.0 mi SW 15.0 mph - N/A   Scattered Clouds
11:44 PM 41.0 °F 34.7 °F 5.0 °F 23% 30.04 in 10.0 mi WSW 10.4 mph - N/A   Scattered Clouds